Air Quality Table

TIMESTAMP NO2 O3 PM2.5 TEMP HUM AIRPRES WS WD NO
2022-01-21 01:00 N/A 63.58 µg/m3 7.93 µg/m3 11.61 °C N/A 1,012.07 mbar 0.77 m/s 296.63 Deg N/A
2022-01-20 17:00 N/A 73.18 µg/m3 5.98 µg/m3 14.35 °C N/A 1,013.53 mbar 1.2 m/s 314.57 Deg N/A
2022-01-20 09:00 N/A 37.52 µg/m3 5.86 µg/m3 10.32 °C N/A 1,015.79 mbar 0.63 m/s 279.86 Deg N/A
2022-01-20 01:00 N/A 43.81 µg/m3 8.71 µg/m3 11.3 °C N/A 1,017.79 mbar 0.72 m/s 231.94 Deg N/A
2022-01-19 17:00 N/A 60.94 µg/m3 10.43 µg/m3 14.14 °C N/A 1,018.61 mbar 1.7 m/s 191.31 Deg N/A
2022-01-19 09:00 N/A 39.38 µg/m3 5.84 µg/m3 10.99 °C N/A 1,018.90 mbar 0.36 m/s 308.85 Deg N/A
2022-01-19 01:00 N/A 46.09 µg/m3 11.09 µg/m3 10.58 °C N/A 1,019.25 mbar 0.37 m/s 292.82 Deg N/A
2022-01-18 17:00 N/A 78.21 µg/m3 3.35 µg/m3 14.19 °C N/A 1,017.59 mbar 1.72 m/s 119.3 Deg N/A
2022-01-18 09:00 N/A 62.6 µg/m3 2.22 µg/m3 11.05 °C N/A 1,015.60 mbar 0.7 m/s 327.79 Deg N/A
2022-01-18 01:00 N/A 79.77 µg/m3 2.72 µg/m3 12.48 °C N/A 1,014.41 mbar 1.2 m/s 334.49 Deg N/A
2022-01-17 17:00 N/A 80.77 µg/m3 3.8 µg/m3 14.44 °C N/A 1,014.25 mbar 1.72 m/s 330.56 Deg N/A
2022-01-17 09:00 N/A 61.13 µg/m3 2.5 µg/m3 11.45 °C N/A 1,015.04 mbar 0.63 m/s 332.71 Deg N/A
2022-01-17 01:00 N/A 51.18 µg/m3 9.2 µg/m3 11.62 °C N/A 1,015.01 mbar 0.44 m/s 317.81 Deg N/A
2022-01-16 17:00 N/A 73.94 µg/m3 4.31 µg/m3 15.92 °C N/A 1,013.46 mbar 0.87 m/s 224.9 Deg N/A
2022-01-16 09:00 N/A 27.88 µg/m3 3.26 µg/m3 8.54 °C N/A 1,012.17 mbar 0.53 m/s 293.28 Deg N/A
2022-01-16 01:00 N/A 48.71 µg/m3 6 µg/m3 9.78 °C N/A 1,010.86 mbar 0.44 m/s 309.88 Deg N/A
2022-01-15 17:00 N/A 78.54 µg/m3 3.49 µg/m3 13.56 °C N/A 1,010.44 mbar 1.63 m/s 160.67 Deg N/A
2022-01-15 09:00 N/A 44.71 µg/m3 2.81 µg/m3 7.87 °C N/A 1,012.13 mbar 0.44 m/s 298.31 Deg N/A
2022-01-15 01:00 N/A 57.6 µg/m3 8.33 µg/m3 9.31 °C N/A 1,014.60 mbar 0.55 m/s 268.27 Deg N/A
2022-01-14 17:00 N/A 75.92 µg/m3 4.67 µg/m3 12.36 °C N/A 1,015.28 mbar 2.59 m/s 192.47 Deg N/A

It is to be noted that the data is provisional and subject to quality assurance procedures. For validated data kindly refer your request to contact.air@era.org.mt